Waarnemingen

Advertentie
Mijn weer
Ahaus, Duitsland (10309): temperatuur & dauwpunt: 15.01.2017 18:00:00 - 21.01.2017 18:00:00 (CET)Ahaus, Duitsland (10309): temperatuur 5cm & temperatuur -5cm: 15.01.2017 18:00:00 - 21.01.2017 18:00:00 (CET)Ahaus, Duitsland (10309): temperatuur -20cm & temperatuur -100cm: 15.01.2017 18:00:00 - 21.01.2017 18:00:00 (CET)Ahaus, Duitsland (10309): windsnelheid & windstoten: 15.01.2017 18:00:00 - 21.01.2017 18:00:00 (CET)Ahaus, Duitsland (10309): windrichting: 15.01.2017 18:00:00 - 21.01.2017 18:00:00 (CET)Ahaus, Duitsland (10309): luchtdruk: 15.01.2017 18:00:00 - 21.01.2017 18:00:00 (CET)Ahaus, Duitsland (10309): zicht: 15.01.2017 18:00:00 - 21.01.2017 18:00:00 (CET)Ahaus, Duitsland (10309): Zonneschijnduur: 15.01.2017 18:00:00 - 21.01.2017 18:00:00 (CET)Ahaus, Duitsland (10309): neerslag: 15.01.2017 18:00:00 - 21.01.2017 18:00:00 (CET)
Datum & Tijd tt [°C] td [°C] tt 5cm [°C] tt -5cm [°C] tt -20cm [°C] tt -100cm [°C] ff [km/u] ff [kn] fx [km/u] fx [kn] dd ppp [hPa] vv [km] sd [min] rr [mm]
21.01.2017 18:00:00 0,6 -1,6 -3,3 -0,1 0,2 4,4 6 3 9 5 ONO 1029,3 9 0 0,0
21.01.2017 17:00:00 1,9 -1,1 -2,2 -0,1 0,2 4,5 3 2 12 6 NO 1029,3 11 39 0,0
21.01.2017 16:00:00 4,1 -1,1 3,9 -0,1 0,2 4,5 7 4 16 9 O 1029,3 16 60 0,0
21.01.2017 15:00:00 3,8 -0,8 4,7 -0,2 0,2 4,5 11 6 16 8 ONO 1029,5 14 60 0,0
21.01.2017 14:00:00 3,6 -1,2 4,1 -0,3 0,2 4,5 10 5 18 10 O 1030,2 13 60 0,0
21.01.2017 13:00:00 3,0 -1,5 3,4 -0,3 0,2 4,5 9 5 18 10 O 1030,8 13 59 0,0
21.01.2017 12:00:00 1,6 -0,9 2,7 -0,5 0,2 4,5 9 5 15 8 ONO 1031,6 7 60 0,0
21.01.2017 11:00:00 0,2 -1,2 0,7 -0,9 0,2 4,5 11 6 16 9 ONO 1031,9 5 60 0,0
21.01.2017 10:00:00 -1,0 -1,7 -1,2 -1,8 0,2 4,5 9 5 13 7 ONO 1032,1 3,5 49 0,0
21.01.2017 09:00:00 -2,6 -2,9 -4,4 -2,5 0,2 4,5 9 5 13 7 ONO 1032,0 2,8 0 0,0
21.01.2017 08:00:00 -1,9 -2,3 -3,6 -2,5 0,3 4,5 10 5 14 8 ONO 1032,0 3,3 0 0,0
21.01.2017 07:00:00 -2,2 -2,7 -4,2 -2,5 0,3 4,5 9 5 14 8 ONO 1032,2 3,4 0 0,0
21.01.2017 06:00:00 -2,3 -2,8 -4,9 -2,5 0,3 4,5 9 5 13 7 ONO 1032,4 3,6 0 0,0
21.01.2017 05:00:00 -2,2 -2,7 -5,3 -2,4 0,3 4,5 7 4 11 6 NO 1032,8 4,2 0 0,0
21.01.2017 04:00:00 -2,8 -3,3 -6,8 -2,3 0,3 4,5 6 3 12 6 NO 1033,2 4,5 0 0,0
21.01.2017 03:00:00 -1,9 -2,8 -5,3 -2,2 0,4 4,5 7 4 14 8 NO 1033,4 6 0 0,0
21.01.2017 02:00:00 -2,3 -3,2 -5,9 -2,0 0,4 4,5 6 4 9 5 ONO 1033,6 7 0 0,0
21.01.2017 01:00:00 -1,1 -2,9 -4,1 -1,8 0,4 4,5 6 4 14 8 ONO 1033,9 9 0 0,0
21.01.2017 00:00:00 -2,4 -4,5 -6,3 -1,6 0,4 4,5 5 3 11 6 NO 1034,3 10 0 0,0
20.01.2017 23:00:00 -1,4 -4,5 -5,0 -1,2 0,4 4,5 8 5 11 6 ONO 1034,6 11 0 0,0
20.01.2017 22:00:00 -1,8 -5,1 -5,7 -0,8 0,4 4,5 8 4 10 6 NO 1034,7 11 0 0,0
20.01.2017 21:00:00 -1,6 -6,9 -5,1 -0,3 0,4 4,5 6 3 13 7 ONO 1034,9 13 0 0,0
20.01.2017 20:00:00 -0,4 -7,4 -2,5 -0,1 0,4 4,5 8 4 14 7 ONO 1034,8 17 0 0,0
20.01.2017 19:00:00 -0,3 -6,4 -2,7 -0,1 0,4 4,5 8 4 11 6 NO 1034,8 15 0 0,0
20.01.2017 18:00:00 0,0 -5,2 -3,6 -0,1 0,4 4,5 6 3 12 6 NO 1034,9 12 0 0,0
20.01.2017 17:00:00 1,8 -5,8 -0,9 -0,1 0,4 4,6 9 5 14 7 NO 1035,0 16 11 0,0
20.01.2017 16:00:00 2,6 -5,7 0,5 -0,1 0,4 4,6 7 4 13 7 NO 1034,9 13 20 0,0
20.01.2017 15:00:00 3,6 -4,8 3,3 -0,2 0,4 4,6 5 3 11 6 NNO 1034,8 17 55 0,0
20.01.2017 14:00:00 3,5 -7,0 4,2 -0,2 0,4 4,6 6 3 13 7 NO 1035,3 14 60 0,0
20.01.2017 13:00:00 2,5 -6,6 3,0 -0,3 0,4 4,6 9 5 11 6 ONO 1035,8 11 60 0,0
20.01.2017 12:00:00 0,7 -5,8 1,1 -0,5 0,4 4,6 6 3 12 7 ONO 1036,5 12 60 0,0
20.01.2017 11:00:00 -1,3 -5,4 -1,5 -0,9 0,4 4,6 3 2 9 5 N 1036,7 8 60 0,0
20.01.2017 10:00:00 -3,1 -5,5 -3,7 -1,6 0,4 4,6 3 1 6 3 N 1036,6 5 47 0,0
20.01.2017 09:00:00 -4,8 -6,1 -5,8 -2,3 0,5 4,6 5 3 7 4 NNO 1036,8 4,3 0 0,0
20.01.2017 08:00:00 -5,0 -6,1 -6,7 -2,2 0,5 4,6 5 3 6 4 N 1036,6 4,3 0 0,0
20.01.2017 07:00:00 -4,3 -5,7 -5,3 -1,9 0,5 4,6 4 2 5 3 N 1036,5 4,8 0 0,0
20.01.2017 06:00:00 -4,3 -5,8 -6,2 -2,2 0,5 4,6 3 2 6 4 NO 1036,6 6 0 0,0
20.01.2017 05:00:00 -3,9 -5,7 -7,1 -2,1 0,5 4,6 4 2 7 4 ONO 1036,8 6 0 0,0
20.01.2017 04:00:00 -4,2 -5,1 -6,5 -2,0 0,6 4,6 4 2 5 3 O 1036,7 3,6 0 0,0
20.01.2017 03:00:00 -4,3 -5,0 -7,3 -1,8 0,6 4,6 4 2 7 4 NNO 1036,9 3,3 0 0,0
20.01.2017 02:00:00 -4,1 -4,8 -7,2 -1,6 0,6 4,6 4 2 6 4 NO 1037,0 3,2 0 0,0
20.01.2017 01:00:00 -4,3 -4,8 -6,7 -1,3 0,6 4,6 4 2 6 3 N 1037,4 3,2 0 0,0
20.01.2017 00:00:00 -3,4 -4,3 -6,5 -0,9 0,6 4,6 4 2 7 4 O 1037,7 3,8 0 0,0
19.01.2017 23:00:00 -3,8 -4,6 -6,2 -0,3 0,6 4,6 4 2 5 3 ONO 1037,8 3,7 0 0,0
19.01.2017 22:00:00 -2,9 -4,4 -5,5 0,0 0,6 4,6 0 0 6 3 N 1038,1 6 0 0,0
19.01.2017 21:00:00 -2,6 -4,5 -5,4 0,0 0,6 4,6 4 2 8 4 NNO 1038,2 6 0 0,0
19.01.2017 20:00:00 -1,6 -4,7 -4,4 0,0 0,6 4,6 5 3 6 3 ONO 1038,0 7 0 0,0
19.01.2017 19:00:00 -2,0 -3,8 -4,9 0,0 0,6 4,6 4 2 5 3 NNO 1038,0 6 0 0,0
19.01.2017 18:00:00 -0,9 -4,3 -4,5 0,0 0,6 4,6 3 2 10 5 NO 1037,9 8 0 0,0
19.01.2017 17:00:00 1,2 -5,3 -1,7 0,0 0,6 4,7 7 4 10 5 NNO 1037,6 11 35 0,0
19.01.2017 16:00:00 2,0 -4,9 2,6 0,0 0,6 4,7 6 3 11 6 NO 1037,5 12 60 0,0
19.01.2017 15:00:00 2,2 -4,9 4,1 0,0 0,6 4,7 8 4 11 6 N 1037,8 11 60 0,0
19.01.2017 14:00:00 2,4 -5,6 4,0 -0,1 0,6 4,7 4 2 9 5 ONO 1038,0 13 60 0,0
19.01.2017 13:00:00 1,4 -6,2 2,6 -0,2 0,6 4,7 4 2 10 5 ZO 1038,5 10 48 0,0
19.01.2017 12:00:00 0,2 -5,2 1,8 -0,3 0,6 4,7 6 3 9 5 ZZO 1038,9 10 60 0,0
19.01.2017 11:00:00 -1,4 -4,4 -0,2 -0,6 0,6 4,7 6 3 10 5 O 1039,2 5 26 0,0
19.01.2017 10:00:00 -3,0 -4,4 -4,9 -1,2 0,6 4,7 5 3 7 4 OZO 1039,1 4,9 0 0,0
19.01.2017 09:00:00 -3,2 -4,4 -5,2 -0,9 0,7 4,7 4 2 7 4 ONO 1038,9 4,5 0 0,0
19.01.2017 08:00:00 -2,9 -3,8 -3,4 -0,8 0,7 4,7 3 2 5 3 NO 1038,5 4,5 0 0,0
19.01.2017 07:00:00 -2,6 -3,9 -3,5 -0,7 0,7 4,7 4 2 5 3 N 1038,6 5 0 0,0
19.01.2017 06:00:00 -2,8 -3,9 -4,5 -0,7 0,7 4,7 2 1 4 2 O 1038,7 4,6 0 0,0
19.01.2017 05:00:00 -2,2 -3,8 -2,8 -0,5 0,7 4,7 3 2 6 3 NO 1038,9 5 0 0,0
19.01.2017 04:00:00 -2,3 -4,0 -2,4 -0,5 0,7 4,7 5 3 8 4 ONO 1039,0 6 0 0,0
19.01.2017 03:00:00 -2,3 -4,0 -2,6 -0,5 0,7 4,7 5 3 8 4 NNO 1038,8 6 0 0,0
19.01.2017 02:00:00 -2,5 -4,0 -2,7 -0,4 0,7 4,7 4 2 8 4 O 1038,7 5 0 0,0
19.01.2017 01:00:00 -2,7 -4,0 -2,9 -0,4 0,7 4,7 4 2 6 3 ONO 1039,1 4,8 0 0,0
19.01.2017 00:00:00 -3,4 -4,2 -3,5 -0,4 0,7 4,7 4 2 6 3 NNO 1039,3 3,8 0 0,0
18.01.2017 23:00:00 -3,9 -4,6 -6,3 -0,2 0,7 4,7 4 2 8 4 ONO 1039,4 3,1 0 0,0
18.01.2017 22:00:00 -3,7 -4,4 -5,6 0,0 0,7 4,7 3 2 5 3 ONO 1039,6 4,3 0 0,0
18.01.2017 21:00:00 -3,4 -4,4 -5,3 0,0 0,7 4,7 4 2 8 4 NNO 1039,4 4,5 0 0,0
18.01.2017 20:00:00 -2,3 -3,6 -3,3 0,0 0,7 4,7 6 3 7 4 ONO 1039,6 5 0 0,0
18.01.2017 19:00:00 -1,9 -3,5 -4,0 0,0 0,7 4,8 3 2 6 4 NNO 1039,7 6 0 0,0
18.01.2017 18:00:00 -1,1 -3,7 -1,4 0,0 0,7 4,8 4 2 7 4 NO 1039,9 7 0 0,0
18.01.2017 17:00:00 -1,0 -3,4 -1,2 0,0 0,7 4,8 5 3 9 5 ONO 1040,0 6 0 0,0
18.01.2017 16:00:00 -0,6 -3,9 -0,6 0,0 0,7 4,8 6 3 11 6 ONO 1039,9 9 9 0,0
18.01.2017 15:00:00 -0,5 -4,5 1,3 -0,1 0,7 4,8 8 5 14 7 ONO 1040,1 8 38 0,0
18.01.2017 14:00:00 -0,7 -4,7 0,9 -0,1 0,7 4,8 8 4 10 6 ONO 1040,0 8 29 0,0
18.01.2017 13:00:00 -1,2 -4,9 1,4 -0,1 0,7 4,8 6 4 11 6 O 1040,5 6 51 0,0
18.01.2017 12:00:00 -2,1 -4,1 -1,3 -0,2 0,7 4,8 8 4 12 6 ONO 1041,0 4,1 4 0,0
18.01.2017 11:00:00 -2,7 -4,3 -1,9 -0,4 0,7 4,8 6 4 13 7 O 1041,2 3,8 0 0,0
18.01.2017 10:00:00 -3,5 -4,5 -3,0 -0,5 0,7 4,8 5 3 15 8 ONO 1041,0 3,3 0 0,0
18.01.2017 09:00:00 -4,1 -4,9 -3,7 -0,7 0,8 4,8 5 3 14 8 ONO 1040,7 2,8 0 0,0
18.01.2017 08:00:00 -4,3 -4,8 -3,9 -0,6 0,8 4,8 10 6 15 8 OZO 1040,5 2,3 0 0,0
18.01.2017 07:00:00 -4,0 -4,5 -3,6 -0,6 0,8 4,8 10 5 16 9 ZZO 1040,3 2,8 0 0,0
18.01.2017 06:00:00 -4,0 -4,3 -3,6 -0,5 0,8 4,8 5 3 14 7 ZO 1040,3 2,2 0 0,0
18.01.2017 05:00:00 -3,9 -4,3 -3,5 -0,4 0,8 4,8 7 4 10 6 ZO 1040,7 2,3 0 0,0
18.01.2017 04:00:00 -3,9 -4,4 -3,5 -0,4 0,8 4,8 5 3 10 6 ONO 1040,7 2,3 0 0,0
18.01.2017 03:00:00 -3,9 -4,4 -3,4 -0,4 0,8 4,8 5 3 8 4 NNO 1040,8 2,1 0 0,0
18.01.2017 02:00:00 -4,0 -4,5 -3,7 -0,3 0,8 4,8 4 2 9 5 ZO 1040,6 2,7 0 0,0
18.01.2017 01:00:00 -3,7 -4,2 -3,2 -0,3 0,8 4,8 6 4 12 6 ONO 1040,5 2,5 0 0,0
18.01.2017 00:00:00 -3,6 -4,1 -3,0 -0,2 0,9 4,8 10 6 14 7 ZO 1040,5 2,5 0 0,0
17.01.2017 23:00:00 -3,7 -4,0 -3,3 -0,2 0,9 4,8 8 4 16 8 OZO 1040,7 2,5 0 0,0
17.01.2017 22:00:00 -3,6 -3,9 -3,2 -0,1 0,9 4,9 7 4 11 6 O 1040,3 2,1 0 0,0
17.01.2017 21:00:00 -3,6 -4,0 -3,2 -0,1 0,9 4,9 5 3 13 7 ONO 1040,2 2,2 0 0,0
17.01.2017 20:00:00 -3,8 -4,0 -3,3 0,0 0,9 4,9 5 3 13 7 O 1039,9 1,8 0 0,0
17.01.2017 19:00:00 -4,0 -4,3 -3,4 0,0 0,9 4,9 6 3 9 5 NO 1039,8 2,0 0 0,0
17.01.2017 18:00:00 -4,1 -4,2 -3,6 0,0 0,9 4,9 5 3 12 6 O 1039,3 1,0 0 0,0
17.01.2017 17:00:00 -3,8 -4,1 -3,1 0,0 0,9 4,9 7 4 12 7 ONO 1039,3 1,4 0 0,0
17.01.2017 16:00:00 -3,7 -3,8 -2,9 0,0 0,9 4,9 6 4 13 7 ONO 1039,0 1,6 0 0,0
17.01.2017 15:00:00 -3,7 -4,1 -2,4 0,0 0,9 4,9 8 4 14 8 NNO 1038,9 1,9 0 0,0
17.01.2017 14:00:00 -3,4 -4,1 -1,9 0,0 0,9 4,9 2 1 9 5 NNW 1038,9 2,3 0 0,0
17.01.2017 13:00:00 -3,4 -4,3 -2,6 0,0 0,9 4,9 5 3 9 5 ZZW 1039,0 3,0 0 0,0
17.01.2017 12:00:00 -3,3 -4,3 -2,0 0,0 0,9 4,9 5 3 9 5 NNW 1039,0 2,9 0 0,0
17.01.2017 11:00:00 -3,8 -5,0 -3,2 -0,1 0,9 4,9 5 3 8 4 WNW 1038,9 3,3 0 0,0
17.01.2017 10:00:00 -3,9 -5,0 -3,1 -0,1 0,9 4,9 4 2 9 5 O 1038,3 3,3 0 0,0
17.01.2017 09:00:00 -3,8 -4,9 -3,2 -0,1 0,9 4,9 4 2 8 4 NO 1037,8 3,7 0 0,0
17.01.2017 08:00:00 -3,5 -4,5 -3,3 -0,1 0,9 4,9 3 2 7 4 N 1037,2 4,4 0 0,0
17.01.2017 07:00:00 -3,4 -4,7 -3,7 0,0 0,9 4,9 5 3 8 4 OZO 1036,5 5 0 0,0
17.01.2017 06:00:00 -3,0 -4,3 -2,8 0,0 0,9 4,9 5 3 14 8 NNO 1036,0 4,9 0 0,0
17.01.2017 05:00:00 -3,0 -4,5 -2,8 0,1 1,0 4,9 6 3 16 9 O 1035,7 5 0 0,0
17.01.2017 04:00:00 -3,3 -4,1 -2,9 0,1 1,0 4,9 6 4 14 8 ONO 1035,6 4,4 0 0,0
17.01.2017 03:00:00 -3,5 -4,2 -3,1 0,1 1,0 4,9 6 3 17 9 ONO 1035,3 3,9 0 0,0
17.01.2017 02:00:00 -3,4 -3,8 -3,0 0,1 1,0 5,0 4 2 15 8 O 1034,9 2,8 0 0,0
17.01.2017 01:00:00 -3,4 -4,0 -3,0 0,1 1,0 5,0 9 5 13 7 NO 1034,7 3,8 0 0,0
17.01.2017 00:00:00 -3,2 -3,9 -2,8 0,1 1,0 5,0 7 4 13 7 NO 1034,2 3,4 0 0,0
16.01.2017 23:00:00 -3,4 -3,8 -3,0 0,1 1,0 5,0 9 5 13 7 ONO 1033,7 2,9 0 0,0
16.01.2017 22:00:00 -3,4 -3,7 -2,9 0,1 1,0 5,0 7 4 14 8 NNO 1033,3 2,7 0 0,0
16.01.2017 21:00:00 -3,2 -3,7 -2,8 0,1 1,0 5,0 7 4 20 11 ONO 1032,6 3,5 0 0,0
16.01.2017 20:00:00 -3,5 -3,9 -3,0 0,1 1,0 5,0 11 6 21 11 ONO 1032,0 3,3 0 0,0
16.01.2017 19:00:00 -3,0 -3,5 -2,6 0,1 1,0 5,0 10 5 17 9 NO 1031,3 3,4 0 0,0
16.01.2017 18:00:00 -3,4 -4,1 -2,9 0,1 1,0 5,0 12 6 17 9 NO 1030,8 4,2 0 0,0
16.01.2017 17:00:00 -2,2 -3,2 -2,0 0,1 1,0 5,0 8 4 17 9 NO 1030,4 5 0 0,0
16.01.2017 16:00:00 -1,1 -3,0 -0,9 0,1 1,0 5,0 8 4 12 6 N 1029,6 7 39 0,0
16.01.2017 15:00:00 -0,7 -3,0 0,7 0,1 1,0 5,0 8 4 13 7 NNO 1029,1 7 9 0,0
16.01.2017 14:00:00 -0,6 -3,1 0,6 0,1 1,0 5,0 9 5 13 7 N 1028,6 7 45 0,0
16.01.2017 13:00:00 -0,5 -3,2 0,4 0,1 1,0 5,0 4 2 13 7 NNO 1028,5 12 18 0,0
16.01.2017 12:00:00 -0,9 -3,0 -0,7 0,1 1,0 5,0 8 5 16 9 ONO 1028,4 8 0 0,0
16.01.2017 11:00:00 -1,1 -1,7 -0,7 0,1 1,0 5,0 7 4 10 6 NO 1028,2 6 0 0,0
16.01.2017 10:00:00 -1,4 -1,9 -1,3 0,1 1,0 5,0 7 4 14 7 O 1027,6 7 0 0,0
16.01.2017 09:00:00 -1,5 -1,5 -1,3 0,1 1,0 5,0 6 3 16 9 O 1026,9 4,9 0 0,0
16.01.2017 08:00:00 -1,8 -1,9 -1,6 0,1 1,0 5,1 8 5 14 8 ONO 1026,3 2,3 0 0,0
16.01.2017 07:00:00 -1,7 -1,7 -1,5 0,1 1,0 5,1 5 3 8 5 ONO 1025,7 0,6 0 0,0
16.01.2017 06:00:00 -2,2 -2,2 -1,9 0,1 1,0 5,1 2 1 10 5 N 1025,1 0,1 0 0,0
16.01.2017 05:00:00 -2,6 -2,6 -2,3 0,1 1,1 5,1 3 2 7 4 NNO 1024,7 0,1 0 0,0
16.01.2017 04:00:00 -2,5 -2,5 -2,2 0,1 1,1 5,1 0 0 4 2 N 1024,4 0,1 0 0,0
16.01.2017 03:00:00 -2,9 -2,9 -2,7 0,1 1,1 5,1 0 0 5 3 N 1024,1 0,2 0 0,0
16.01.2017 02:00:00 -2,7 -2,7 -3,9 0,1 1,1 5,1 3 2 9 5 WZW 1023,7 0,1 0 0,0
16.01.2017 01:00:00 -2,0 -2,0 -3,4 0,1 1,1 5,1 4 2 6 3 ZZW 1023,8 1,4 0 0,0
16.01.2017 00:00:00 -2,0 -2,0 -3,0 0,1 1,1 5,1 5 3 6 3 Z 1023,4 1,5 0 0,0
15.01.2017 23:00:00 -1,8 -1,9 -2,9 0,2 1,1 5,1 3 2 8 4 ZW 1023,2 1,9 0 0,0
15.01.2017 22:00:00 -1,7 -1,7 -2,7 0,2 1,1 5,1 4 2 8 4 WZW 1022,9 1,7 0 0,0
15.01.2017 21:00:00 -2,0 -2,0 -3,9 0,2 1,1 5,1 6 3 7 4 ZZW 1022,7 2,6 0 0,0
15.01.2017 20:00:00 -1,7 -1,7 -4,8 0,2 1,1 5,1 3 2 6 3 WZW 1022,4 2,3 0 0,0
15.01.2017 19:00:00 -1,8 -1,8 -4,9 0,2 1,1 5,1 4 2 7 4 WZW 1022,1 2,9 0 0,0
15.01.2017 18:00:00 -1,3 -1,7 -4,8 0,2 1,2 5,1 4 2 6 3 ZZW 1021,6 8 0 0,0

tt = temperatuur
td = dauwpunt
tt 5cm = temperatuur 5cm
tt -5cm = temperatuur -5cm
tt -20cm = temperatuur -20cm
tt -100cm = temperatuur -100cm
ff = windsnelheid
fx = windstoten
dd = windrichting
ppp = luchtdruk
vv = zicht
sd = Zonneschijnduur
rr = neerslag

Weerstations in de omgeving